DW9750 Weather Reports


time (UTC)temp
F
wind
direction
speed
knots
gust
knots
rain 1hr
in
rain 24hr
in
rain mn
in
humidity
%
barometer
mb
20260901200017 97 274 2.6 7.8 0.00 0.00 0.00 38 1011.9
20260901194511 96 184 3.5 7.0 0.00 0.00 0.00 39 1012.2
20260901193011 96 239 3.5 7.8 0.00 0.00 0.00 40 1012.3
20260901191513 96 251 2.6 5.2 0.00 0.00 0.00 40 1012.5
20260901190005 95 40 0.9 2.6 0.00 0.00 0.00 40 1012.7
20260901184503 95 91 1.7 4.3 0.00 0.00 0.00 43 1013.1
20260901183120 94 125 0.9 6.1 0.00 0.00 0.00 42 1013.3
20260901181558 93 161 1.7 6.1 0.00 0.00 0.00 43 1013.5
20260901180057 93 166 2.6 7.0 0.00 0.00 0.00 43 1013.8
20260901174554 93 131 1.7 6.1 0.00 0.00 0.00 42 1014.1
20260901173119 92 173 2.6 6.1 0.00 0.00 0.00 47 1014.1
20260901171555 91 120 1.7 6.1 0.00 0.00 0.00 48 1014.3
20260901170054 90 215 1.7 5.2 0.00 0.00 0.00 50 1014.4
20260901164547 90 234 0.9 6.1 0.00 0.00 0.00 51 1014.5
20260901163104 89 173 1.7 7.0 0.00 0.00 0.00 52 1014.6
20260901161548 87 139 1.7 6.1 0.00 0.00 0.00 56 1014.7
20260901160039 87 87 1.7 5.2 0.00 0.00 0.00 58 1014.7
20260901154532 86 182 0.9 2.6 0.00 0.00 0.00 62 1014.7
20260901153030 85 101 1.7 4.3 0.00 0.00 0.00 66 1014.6
20260901151526 83 317 0.9 5.2 0.00 0.00 0.00 68 1014.8
20260901150022 82 121 1.7 4.3 0.00 0.00 0.00 71 1014.7
20260901144520 82 223 1.7 4.3 0.00 0.00 0.00 73 1014.7
20260901143020 80 68 0.0 2.6 0.00 0.00 0.00 76 1014.7
20260901141530 79 274 0.0 1.7 0.00 0.00 0.00 81 1014.8
20260901140021 76 66 0.0 0.0 0.00 0.00 0.00 87 1014.8
20260901134516 74 75 0.0 0.0 0.00 0.00 0.00 88 1014.7
20260901133018 72 75 0.0 0.0 0.00 0.00 0.00 90 1014.6
20260901131518 71 75 0.0 0.0 0.00 0.00 0.00 90 1014.6
20260901130014 70 75 0.0 0.0 0.00 0.00 0.00 91 1014.5
20260901124512 69 75 0.0 0.0 0.00 0.00 0.00 91 1014.4
20260901123021 69 75 0.0 0.0 0.00 0.00 0.00 90 1014.3
20260901121514 70 75 0.0 0.0 0.00 0.00 0.00 89 1014.2
20260901120007 70 75 0.0 0.0 0.00 0.00 0.00 89 1014.2
20260901114505 71 75 0.0 0.0 0.00 0.00 0.00 88 1014.3
20260901113003 71 75 0.0 0.0 0.00 0.00 0.00 87 1014.2
20260901111501 72 75 0.0 0.0 0.00 0.00 0.00 88 1014.1
20260901110100 73 75 0.0 0.0 0.00 0.00 0.00 90 1013.9
20260901104602 72 75 0.0 0.0 0.00 0.00 0.00 86 1013.9
20260901103101 72 75 0.0 0.0 0.00 0.00 0.00 86 1014.0
20260901101607 72 75 0.0 0.0 0.00 0.00 0.00 85 1014.1
20260901100106 73 75 0.0 0.0 0.00 0.00 0.00 84 1014.0
20260901094554 73 94 0.0 0.0 0.00 0.00 0.00 83 1014.0
20260901093051 75 94 0.0 0.0 0.00 0.00 0.00 82 1014.1
20260901091550 74 71 0.0 0.9 0.00 0.00 0.00 81 1014.3
20260901090046 75 92 0.0 0.9 0.00 0.00 0.00 79 1014.2
20260901084552 75 109 0.0 1.7 0.00 0.00 0.00 78 1014.2
20260901083044 76 89 0.9 1.7 0.00 0.00 0.00 77 1014.1
20260901081543 76 83 0.0 2.6 0.00 0.00 0.00 76 1014.1
20260901080050 76 78 0.0 0.9 0.00 0.00 0.00 74 1014.1
20260901074537 77 78 0.0 2.6 0.00 0.00 0.00 73 1014.0
20260901073045 77 52 1.7 4.3 0.00 0.00 0.00 72 1014.0
20260901071533 78 109 1.7 3.5 0.00 0.00 0.00 70 1014.0
20260901070030 78 80 1.7 3.5 0.00 0.00 0.00 69 1013.9
20260901064529 79 79 0.0 3.5 0.00 0.00 0.00 68 1013.8
20260901063026 80 104 1.7 3.5 0.00 0.00 0.00 67 1013.7
20260901061523 80 100 1.7 5.2 0.00 0.00 0.00 67 1013.6
20260901060035 81 151 2.6 7.0 0.00 0.00 0.00 66 1013.4
20260901054518 82 96 2.6 5.2 0.00 0.00 0.00 67 1013.3
20260901053015 82 171 1.7 6.1 0.00 0.00 0.00 67 1013.2
20260901051514 82 109 1.7 6.1 0.00 0.00 0.00 67 1013.1
20260901050012 82 111 1.7 4.3 0.00 0.00 0.00 66 1012.9
20260901044511 83 153 0.0 4.3 0.00 0.00 0.00 65 1012.9
20260901043010 83 97 1.7 6.1 0.00 0.00 0.00 65 1012.9
20260901041509 83 91 1.7 5.2 0.00 0.00 0.00 64 1012.8
20260901040009 83 121 1.7 4.3 0.00 0.00 0.00 64 1012.8
20260901034508 83 89 1.7 4.3 0.00 0.00 0.00 63 1012.7
20260901033007 83 101 2.6 6.1 0.00 0.00 0.00 61 1012.5
20260901031507 83 110 1.7 4.3 0.00 0.00 0.00 58 1012.4
20260901030005 84 105 0.9 5.2 0.00 0.00 0.00 56 1012.2
20260901024504 85 79 2.6 5.2 0.00 0.00 0.00 54 1012.1
20260901023005 83 80 0.9 2.6 0.00 0.00 0.00 55 1011.9
20260901021508 84 85 0.0 1.7 0.00 0.00 0.00 55 1011.5
20260901020002 85 82 0.0 0.9 0.00 0.00 0.00 54 1011.4
20260901014503 86 73 0.0 1.7 0.00 0.00 0.00 53 1011.2
20260901013001 87 78 0.9 1.7 0.00 0.00 0.00 51 1011.3
20260901011502 88 74 0.9 3.5 0.00 0.00 0.00 50 1011.2
20260901010115 89 93 1.7 3.5 0.00 0.00 0.00 49 1011.0
20260901004600 90 108 1.7 5.2 0.00 0.00 0.00 47 1010.9
20260901003104 92 118 2.6 5.2 0.00 0.00 0.00 45 1010.8
20260901001559 93 76 2.6 6.1 0.00 0.00 0.00 44 1010.6
20260901000057 94 123 1.7 5.2 0.00 0.00 0.00 44 1010.6
20260831234558 94 99 1.7 6.1 0.00 0.00 0.00 41 1010.5
20260831233104 94 113 2.6 7.0 0.00 0.00 0.00 41 1010.5
20260831231558 95 210 2.6 6.1 0.00 0.00 0.00 40 1010.4
20260831230110 95 91 0.9 8.7 0.00 0.00 0.00 42 1010.6
20260831224554 95 109 2.6 7.0 0.00 0.00 0.00 40 1010.6
20260831223103 95 118 2.6 9.6 0.00 0.00 0.00 42 1010.7
20260831221556 95 130 3.5 9.6 0.00 0.00 0.00 42 1010.8
20260831220048 95 143 3.5 12.2 0.00 0.00 0.00 41 1011.1
20260831214553 97 110 1.7 7.0 0.00 0.00 0.00 40 1011.2
20260831213046 96 259 2.6 5.2 0.00 0.00 0.00 40 1011.4
20260831211542 95 132 3.5 7.8 0.00 0.00 0.00 43 1011.6
20260831210039 94 122 1.7 9.6 0.00 0.00 0.00 43 1011.9
20260831204538 95 162 1.7 7.0 0.00 0.00 0.00 43 1012.1
20260831203037 94 128 2.6 8.7 0.00 0.00 0.00 44 1012.3
20260831201534 94 180 2.6 7.8 0.00 0.00 0.00 45 1012.6